OBJECT E, 63986

Orbit data source: Space-Track

You're viewing an Uncataloged Satellite

Recently launched and/or uncataloged satellites may have evolving metadata. Metadata may include but not limited to: Owner, Maufacturer, Bus, Motor, and Mission.

OBJECT E, 63986 is a Chinese satellite in SSO that was launched on Wed, 14 May 2025 UTC via a CHANG ZHENG 2D launch vehicle from the Jiuquan Satellite Launch Center, China (JSC). Unknown objects in Earth's orbit typically refer to objects detected orbiting the Earth but have not yet been identified or cataloged. These objects could be anything from previously untracked satellites, spent rocket stages, debris from satellite collisions, or even natural meteoroids temporarily captured by Earth's gravity.

Loading next visibility...
Identifier
63986, 2025-100E
Orbit
SSO
Country
Flag of CNCN / PRC
Related business
None
Manufacturer
Unknown
Mission
Operational Commercial Technology
Bus & Motor
Unknown
Mass
Unknown
Launch date (UTC)
2025-05-14 (1 year ago)
Launch vehicle
CHANG ZHENG 2D
Launch site
Jiuquan Satellite Launch Center, China (JSC)
Object type
Unknown
Shape & HBR
Box + 2 Pan, 1.0 m
Radar Cross Section
0.135 m², Large (>1 m²)

Expand to show TLE details & history
Last TLE update: 11 hours ago

TLE from 11 hours ago
0 OBJECT E
1 63986U 25100E   26206.62650484  .00012473  00000-0  56518-3 0  9996
2 63986  97.3615 278.4751 0011588 174.2440 185.8931 15.20934295 36299
Epoch: 2026-07-25T15:02Z
TLE epoch observation values (Epoch: 2026-07-25T15:02:10.018Z)
Latitude
-0.00001°
Longitude
109.59728°
Altitude
514.048 km
Speed
7.602 km/s
True Right ascension
18h 33m 54s
True Declination
0° 00' 00"
Sunlit
Object was in full shadow at epoch
Visualization orbit readout
Latitude
Unknown
Longitude
Unknown
Altitude
Unknown
Speed
Unknown
Apparent Right ascension
Unknown
Apparent Declination
Unknown
Sunlit
N/A
Visualization observer readout
Local Sidereal Time
15:23:07
Azimuth
Unknown
Elevation
Unknown
Doppler factor
Unknown
Orbital elements
Apogee altitude
507.954 km
Perigee altitude
492.013 km
Semi-major axis
6,878.121 km
Eccentricity
0.00116
Inclination
97.3615°
RAAN
278.4751°
Arg. of periapsis
174.244°
True anomaly
185.87949°
Mean anomaly
185.8931°
Eccentric anomaly
185.88629°
Mean motion
3.80486 °/min
Orbital period
94.62 mins
BSTAR
0.00056518
Loading maneuver chart data...
Computing Atmospheric mass density...
Loading historical data...
Loading historical data...
Loading historical data...
Loading historical data...
Loading historical data...
Loading historical data...
Loading historical data...

Documentation

Showing up to 5 results
|